カタログに戻る

STARLINK-4425

運用中通信SSO
NORAD 53208·PAYLOAD·🇺🇸 United States

打ち上げ Jul 22, 2022 から Vandenberg Space Force Base

Loading…

次のパス (今後24時間)

TLE

最新Source: CelesTrak SupGP

元期: Sep 14, 2026, 22:22 UTC

1 53208C 22084V   26257.93243056  .00684340  00000+0  17368-1 0  2575
2 53208  97.2815 312.7860 0001253  80.7969 154.8158 15.39374129    16

AllMySatでSTARLINK-4425をリアルタイム追跡

Download on the App Store